Powrót do katalogu

JILIN-1 GAOFEN 07C 03 XING

AktywnyNaukaSSO
NORAD 68698·PAYLOAD·🇨🇳 China
Ta nazwa satelity nie została jeszcze potwierdzona przez oficjalne źródła.

Wystrzelony Apr 14, 2026 z Jiuquan Satellite Launch Center

Loading…

Następne Przeloty (najbliższe 24 godziny)

TLE

ŚwieżeSource: Space-Track

Epoka: Sep 14, 2026, 14:58 UTC

1 68698U 26080H   26257.62417694  .00004596  00000-0  29431-3 0  9990
2 68698  97.6580 333.1342 0018581 123.9823 236.3174 15.08923405 23114

Śledź JILIN-1 GAOFEN 07C 03 XING w czasie rzeczywistym z AllMySat

Download on the App Store